Time,TemperatureF,DewpointF,PressureIn,WindDirection,WindDirectionDegrees,WindSpeedMPH,WindSpeedGustMPH,Humidity,HourlyPrecipIn,Conditions,Clouds,dailyrainin,SoftwareType,DateUTC
2013-01-26 00:02:00,17.8,11.0,30.23,WNW,295,5.0,9.0,74,0.00,,,0.00,weatherlink.com 1.10,2013-01-26 06:02:00,
2013-01-26 00:17:00,17.1,10.0,30.23,WNW,283,2.0,5.0,75,0.00,,,0.00,weatherlink.com 1.10,2013-01-26 06:17:00,
2013-01-26 00:32:00,16.4,10.0,30.24,NW,307,1.0,7.0,76,0.00,,,0.00,weatherlink.com 1.10,2013-01-26 06:32:00,
2013-01-26 00:47:00,15.9,10.0,30.24,NNW,337,3.0,4.0,76,0.00,,,0.00,weatherlink.com 1.10,2013-01-26 06:47:00,
2013-01-26 01:02:00,15.4,9.0,30.25,NW,311,3.0,3.0,77,0.00,,,0.00,weatherlink.com 1.10,2013-01-26 07:02:00,
2013-01-26 01:17:00,15.0,9.0,30.25,WSW,248,2.0,5.0,77,0.00,,,0.00,weatherlink.com 1.10,2013-01-26 07:17:00,
2013-01-26 01:32:00,14.6,9.0,30.26,WNW,297,3.0,4.0,78,0.00,,,0.00,weatherlink.com 1.10,2013-01-26 07:32:00,
2013-01-26 01:47:00,14.4,9.0,30.26,NW,311,2.0,5.0,78,0.00,,,0.00,weatherlink.com 1.10,2013-01-26 07:47:00,
2013-01-26 02:02:00,14.2,9.0,30.27,WNW,295,1.0,4.0,78,0.00,,,0.00,weatherlink.com 1.10,2013-01-26 08:02:00,
2013-01-26 02:17:00,13.7,8.0,30.27,NW,308,2.0,4.0,79,0.00,,,0.00,weatherlink.com 1.10,2013-01-26 08:17:00,
2013-01-26 02:32:00,13.4,8.0,30.28,NW,315,1.0,5.0,79,0.00,,,0.00,weatherlink.com 1.10,2013-01-26 08:32:00,
2013-01-26 03:03:00,13.0,8.0,30.29,NW,318,4.0,4.0,80,0.00,,,0.00,weatherlink.com 1.10,2013-01-26 09:03:00,
2013-01-26 03:18:00,12.6,8.0,30.29,NW,315,1.0,3.0,80,0.00,,,0.00,weatherlink.com 1.10,2013-01-26 09:18:00,
2013-01-26 03:33:00,12.3,8.0,30.30,WNW,301,4.0,5.0,81,0.00,,,0.00,weatherlink.com 1.10,2013-01-26 09:33:00,
2013-01-26 03:48:00,11.9,7.0,30.30,WNW,297,0.0,2.0,81,0.00,,,0.00,weatherlink.com 1.10,2013-01-26 09:48:00,
2013-01-26 04:03:00,11.3,7.0,30.30,WNW,291,2.0,2.0,82,0.00,,,0.00,weatherlink.com 1.10,2013-01-26 10:03:00,
2013-01-26 04:18:00,11.0,7.0,30.31,WNW,295,0.0,2.0,82,0.00,,,0.00,weatherlink.com 1.10,2013-01-26 10:18:00,
2013-01-26 04:33:00,10.7,6.0,30.31,NW,304,0.0,3.0,82,0.00,,,0.00,weatherlink.com 1.10,2013-01-26 10:33:00,
2013-01-26 04:48:00,10.5,6.0,30.32,WNW,287,1.0,2.0,82,0.00,,,0.00,weatherlink.com 1.10,2013-01-26 10:48:00,
2013-01-26 05:03:00,10.2,6.0,30.32,NW,306,0.0,2.0,83,0.00,,,0.00,weatherlink.com 1.10,2013-01-26 11:03:00,
2013-01-26 05:18:00,9.9,6.0,30.32,NW,325,0.0,3.0,83,0.00,,,0.00,weatherlink.com 1.10,2013-01-26 11:18:00,
2013-01-26 05:33:00,9.6,5.0,30.33,West,274,0.0,1.0,83,0.00,,,0.00,weatherlink.com 1.10,2013-01-26 11:33:00,
2013-01-26 05:48:00,9.1,5.0,30.33,WNW,297,0.0,1.0,83,0.00,,,0.00,weatherlink.com 1.10,2013-01-26 11:48:00,
2013-01-26 06:03:00,7.7,4.0,30.34,WNW,290,0.0,1.0,85,0.00,,,0.00,weatherlink.com 1.10,2013-01-26 12:03:00,
2013-01-26 06:19:00,8.3,5.0,30.35,SW,227,0.0,2.0,86,0.00,,,0.00,weatherlink.com 1.10,2013-01-26 12:19:00,
2013-01-26 06:33:00,8.3,5.0,30.36,WNW,283,1.0,1.0,86,0.00,,,0.00,weatherlink.com 1.10,2013-01-26 12:33:00,
2013-01-26 06:48:00,8.2,5.0,30.36,WNW,284,1.0,2.0,86,0.00,,,0.00,weatherlink.com 1.10,2013-01-26 12:48:00,
2013-01-26 07:04:00,8.4,5.0,30.37,WNW,294,1.0,2.0,85,0.00,,,0.00,weatherlink.com 1.10,2013-01-26 13:04:00,
2013-01-26 07:18:00,8.2,5.0,30.37,WNW,288,0.0,3.0,85,0.00,,,0.00,weatherlink.com 1.10,2013-01-26 13:18:00,
2013-01-26 07:34:00,8.3,5.0,30.38,WNW,295,0.0,2.0,85,0.00,,,0.00,weatherlink.com 1.10,2013-01-26 13:34:00,
2013-01-26 07:48:00,8.4,5.0,30.39,WNW,295,1.0,2.0,85,0.00,,,0.00,weatherlink.com 1.10,2013-01-26 13:48:00,
2013-01-26 08:04:00,9.1,5.0,30.40,West,278,0.0,3.0,84,0.00,,,0.00,weatherlink.com 1.10,2013-01-26 14:04:00,
2013-01-26 08:19:00,10.1,6.0,30.40,West,281,1.0,2.0,82,0.00,,,0.00,weatherlink.com 1.10,2013-01-26 14:19:00,
2013-01-26 08:34:00,11.0,6.0,30.41,NW,304,1.0,6.0,80,0.00,,,0.00,weatherlink.com 1.10,2013-01-26 14:34:00,
2013-01-26 08:49:00,12.0,6.0,30.41,NW,311,1.0,6.0,78,0.00,,,0.00,weatherlink.com 1.10,2013-01-26 14:49:00,
2013-01-26 09:04:00,12.8,7.0,30.42,NW,311,1.0,5.0,77,0.00,,,0.00,weatherlink.com 1.10,2013-01-26 15:04:00,
2013-01-26 09:19:00,13.7,7.0,30.43,NW,307,2.0,5.0,75,0.00,,,0.00,weatherlink.com 1.10,2013-01-26 15:19:00,
2013-01-26 09:34:00,14.9,8.0,30.43,WSW,248,1.0,4.0,73,0.00,,,0.00,weatherlink.com 1.10,2013-01-26 15:34:00,
2013-01-26 09:49:00,16.0,8.0,30.43,SW,233,0.0,4.0,70,0.00,,,0.00,weatherlink.com 1.10,2013-01-26 15:49:00,
2013-01-26 10:04:00,17.2,8.0,30.44,WSW,243,1.0,4.0,68,0.00,,,0.00,weatherlink.com 1.10,2013-01-26 16:04:00,
2013-01-26 10:19:00,18.2,9.0,30.44,SSW,208,0.0,4.0,67,0.00,,,0.00,weatherlink.com 1.10,2013-01-26 16:19:00,
2013-01-26 10:34:00,18.9,9.0,30.44,West,267,1.0,5.0,65,0.00,,,0.00,weatherlink.com 1.10,2013-01-26 16:34:00,
2013-01-26 10:49:00,19.7,8.0,30.45,NW,312,3.0,6.0,61,0.00,,,0.00,weatherlink.com 1.10,2013-01-26 16:49:00,
2013-01-26 11:04:00,21.0,9.0,30.44,WNW,295,2.0,4.0,59,0.00,,,0.00,weatherlink.com 1.10,2013-01-26 17:04:00,
2013-01-26 11:19:00,21.5,8.0,30.43,NW,304,3.0,4.0,56,0.00,,,0.00,weatherlink.com 1.10,2013-01-26 17:19:00,
2013-01-26 11:34:00,22.0,7.0,30.43,North,358,0.0,3.0,53,0.00,,,0.00,weatherlink.com 1.10,2013-01-26 17:34:00,
2013-01-26 11:49:00,23.2,8.0,30.44,SW,236,5.0,5.0,53,0.00,,,0.00,weatherlink.com 1.10,2013-01-26 17:49:00,
2013-01-26 12:04:00,23.4,9.0,30.43,ENE,57,0.0,5.0,55,0.00,,,0.00,weatherlink.com 1.10,2013-01-26 18:04:00,
2013-01-26 12:19:00,23.4,8.0,30.42,NNE,16,0.0,5.0,51,0.00,,,0.00,weatherlink.com 1.10,2013-01-26 18:19:00,
2013-01-26 12:34:00,24.8,10.0,30.42,SW,236,1.0,4.0,54,0.00,,,0.00,weatherlink.com 1.10,2013-01-26 18:34:00,
2013-01-26 12:49:00,24.8,9.0,30.43,North,8,1.0,2.0,51,0.00,,,0.00,weatherlink.com 1.10,2013-01-26 18:49:00,
2013-01-26 13:04:00,24.8,9.0,30.43,NNW,342,0.0,4.0,51,0.00,,,0.00,weatherlink.com 1.10,2013-01-26 19:04:00,
2013-01-26 13:19:00,24.7,8.0,30.42,NW,323,1.0,5.0,50,0.00,,,0.00,weatherlink.com 1.10,2013-01-26 19:19:00,
2013-01-26 13:34:00,25.3,8.0,30.42,SW,235,4.0,6.0,48,0.00,,,0.00,weatherlink.com 1.10,2013-01-26 19:34:00,
2013-01-26 13:49:00,25.3,9.0,30.41,WSW,244,1.0,3.0,51,0.00,,,0.00,weatherlink.com 1.10,2013-01-26 19:49:00,
2013-01-26 14:05:00,26.0,8.0,30.42,SE,127,1.0,4.0,47,0.00,,,0.00,weatherlink.com 1.10,2013-01-26 20:05:00,
2013-01-26 14:19:00,26.4,9.0,30.42,SW,235,0.0,6.0,48,0.00,,,0.00,weatherlink.com 1.10,2013-01-26 20:19:00,
2013-01-26 14:34:00,27.1,9.0,30.42,East,99,0.0,3.0,47,0.00,,,0.00,weatherlink.com 1.10,2013-01-26 20:34:00,
2013-01-26 14:49:00,26.5,8.0,30.42,WNW,300,1.0,4.0,46,0.00,,,0.00,weatherlink.com 1.10,2013-01-26 20:49:00,
2013-01-26 15:04:00,26.8,9.0,30.43,ESE,119,1.0,2.0,48,0.00,,,0.00,weatherlink.com 1.10,2013-01-26 21:04:00,
2013-01-26 15:19:00,27.2,10.0,30.42,South,185,3.0,4.0,48,0.00,,,0.00,weatherlink.com 1.10,2013-01-26 21:19:00,
2013-01-26 15:35:00,27.1,9.0,30.42,East,86,2.0,2.0,46,0.00,,,0.00,weatherlink.com 1.10,2013-01-26 21:35:00,
2013-01-26 15:49:00,26.5,9.0,30.42,West,278,2.0,2.0,48,0.00,,,0.00,weatherlink.com 1.10,2013-01-26 21:49:00,
2013-01-26 16:05:00,26.4,9.0,30.43,SSE,150,2.0,3.0,48,0.00,,,0.00,weatherlink.com 1.10,2013-01-26 22:05:00,
2013-01-26 16:19:00,26.2,11.0,30.43,SW,233,0.0,3.0,52,0.00,,,0.00,weatherlink.com 1.10,2013-01-26 22:19:00,
2013-01-26 16:35:00,26.0,10.0,30.42,SW,227,0.0,1.0,51,0.00,,,0.00,weatherlink.com 1.10,2013-01-26 22:35:00,
2013-01-26 16:50:00,25.4,10.0,30.42,SW,226,0.0,1.0,52,0.00,,,0.00,weatherlink.com 1.10,2013-01-26 22:50:00,
2013-01-26 17:05:00,23.8,10.0,30.42,SW,226,0.0,0.0,56,0.00,,,0.00,weatherlink.com 1.10,2013-01-26 23:05:00,
2013-01-26 17:20:00,22.8,9.0,30.43,SW,226,0.0,0.0,55,0.00,,,0.00,weatherlink.com 1.10,2013-01-26 23:20:00,
2013-01-26 17:35:00,22.2,9.0,30.43,SW,226,0.0,0.0,58,0.00,,,0.00,weatherlink.com 1.10,2013-01-26 23:35:00,
2013-01-26 17:50:00,21.6,9.0,30.43,SW,226,0.0,1.0,58,0.00,,,0.00,weatherlink.com 1.10,2013-01-26 23:50:00,
2013-01-26 18:05:00,20.9,9.0,30.43,SW,226,0.0,0.0,60,0.00,,,0.00,weatherlink.com 1.10,2013-01-27 00:05:00,
2013-01-26 18:20:00,21.1,10.0,30.43,ENE,76,1.0,1.0,63,0.00,,,0.00,weatherlink.com 1.10,2013-01-27 00:20:00,
2013-01-26 18:35:00,21.5,12.0,30.44,ESE,122,1.0,1.0,66,0.00,,,0.00,weatherlink.com 1.10,2013-01-27 00:35:00,
2013-01-26 18:50:00,21.9,12.0,30.43,ESE,114,1.0,2.0,65,0.00,,,0.00,weatherlink.com 1.10,2013-01-27 00:50:00,
2013-01-26 19:05:00,22.4,12.0,30.43,SE,138,0.0,2.0,65,0.00,,,0.00,weatherlink.com 1.10,2013-01-27 01:05:00,
2013-01-26 19:20:00,22.6,12.0,30.43,ESE,109,0.0,3.0,65,0.00,,,0.00,weatherlink.com 1.10,2013-01-27 01:20:00,
2013-01-26 19:35:00,22.9,13.0,30.43,ESE,113,0.0,3.0,65,0.00,,,0.00,weatherlink.com 1.10,2013-01-27 01:35:00,
2013-01-26 19:50:00,22.9,13.0,30.43,ESE,121,0.0,3.0,65,0.00,,,0.00,weatherlink.com 1.10,2013-01-27 01:50:00,
2013-01-26 20:05:00,23.1,13.0,30.42,ESE,117,1.0,4.0,65,0.00,,,0.00,weatherlink.com 1.10,2013-01-27 02:05:00,
2013-01-26 20:20:00,23.2,13.0,30.43,ESE,110,0.0,1.0,65,0.00,,,0.00,weatherlink.com 1.10,2013-01-27 02:20:00,
2013-01-26 20:35:00,23.4,14.0,30.43,SE,134,0.0,1.0,66,0.00,,,0.00,weatherlink.com 1.10,2013-01-27 02:35:00,
2013-01-26 20:50:00,23.5,14.0,30.44,SE,134,0.0,0.0,66,0.00,,,0.00,weatherlink.com 1.10,2013-01-27 02:50:00,
2013-01-26 21:05:00,23.6,14.0,30.45,SE,134,0.0,0.0,67,0.00,,,0.00,weatherlink.com 1.10,2013-01-27 03:05:00,
2013-01-26 21:20:00,23.4,14.0,30.44,SE,134,0.0,0.0,66,0.00,,,0.00,weatherlink.com 1.10,2013-01-27 03:20:00,
2013-01-26 21:35:00,23.3,13.0,30.43,ESE,112,0.0,2.0,66,0.00,,,0.00,weatherlink.com 1.10,2013-01-27 03:35:00,
2013-01-26 21:50:00,23.3,13.0,30.43,ESE,119,0.0,2.0,65,0.00,,,0.00,weatherlink.com 1.10,2013-01-27 03:50:00,
2013-01-26 22:05:00,23.7,13.0,30.44,ESE,116,1.0,3.0,63,0.00,,,0.00,weatherlink.com 1.10,2013-01-27 04:05:00,
2013-01-26 22:20:00,23.9,13.0,30.44,SE,131,1.0,3.0,64,0.00,,,0.00,weatherlink.com 1.10,2013-01-27 04:20:00,
2013-01-26 22:35:00,24.2,14.0,30.43,ESE,113,1.0,4.0,66,0.00,,,0.00,weatherlink.com 1.10,2013-01-27 04:35:00,
2013-01-26 22:50:00,24.4,16.0,30.43,ESE,109,1.0,3.0,69,0.00,,,0.00,weatherlink.com 1.10,2013-01-27 04:50:00,
2013-01-26 23:05:00,24.5,16.0,30.43,ENE,77,3.0,4.0,71,0.00,,,0.00,weatherlink.com 1.10,2013-01-27 05:05:00,
2013-01-26 23:20:00,24.6,17.0,30.42,East,91,1.0,5.0,73,0.00,,,0.00,weatherlink.com 1.10,2013-01-27 05:20:00,
2013-01-26 23:35:00,24.6,17.0,30.42,East,89,4.0,5.0,74,0.00,,,0.00,weatherlink.com 1.10,2013-01-27 05:35:00,
2013-01-26 23:50:00,24.7,18.0,30.42,SSE,158,2.0,8.0,74,0.00,,,0.00,weatherlink.com 1.10,2013-01-27 05:50:00,